[[{"header":{"parameterUnit":"m.s-1","parameterCategory":2,"la1":30.2991,"la2":30.254,"lo1":-89.0895,"lo2":-89.0444,"dy":0.0017,"dx":0.0017,"nx":28,"ny":28,"refTime":"2025-03-18T21:00:00:Z","depth":"0","parameterNumber":2,"parameterNumberName":"U-component_of_CURRENTS"},"data":[0,0,0,0,0,0,0,0,0,0,0,0,0,0,0,0,0,0,0,0,0,0,0,0,0,0,0,0,0,0,0,0,0,0,0,0,0,0,0,0,0,0,0,0,0,0,0,0,0,0,0,0,0,0,0,0,0,0,0.2071,0.2071,0,0.2119,0.212,0.212,0.2122,0.2122,0.2121,0.2121,0.216,0.2161,0.2163,0,0,0,0,0,0,0,0,0,0,0,0,0,0.2002,0.2003,0.2071,0.2071,0.2072,0.2119,0.212,0.2121,0.2122,0.2122,0.2121,0.212,0.2159,0.2161,0.2163,0,0,0,0,0,0,0,0,0,0,0,0,0,0.2039,0.2003,0.207,0.2079,0.208,0.2119,0.212,0.2121,0.2122,0.2122,0.2121,0.212,0.2159,0.2161,0.2163,0.2194,0,0,0.2171,0.2172,0,0,0,0,0,0,0,0,0.2037,0.2041,0.2077,0.2078,0.208,0.2114,0.211,0.2145,0.2123,0.2106,0.2121,0.212,0.2145,0.2148,0.2159,0.2196,0.2197,0.2171,0.2172,0.2173,0.2174,0,0,0,0,0,0,0,0.2034,0.2039,0.2089,0.2078,0.208,0.2088,0.2092,0.2117,0.2129,0.2107,0.2108,0.2114,0.2145,0.2156,0.216,0.2198,0.2171,0.2173,0.2174,0.2175,0.2277,0.2278,0,0,0,0,0,0,0.2029,0.2037,0.2088,0.2091,0.2056,0.209,0.2094,0.2104,0.2129,0.2132,0.2115,0.2114,0.2153,0.2157,0.2161,0.2207,0.2173,0.2175,0.2177,0.2275,0.2277,0.2278,0,0,0,0,0,0,0.2027,0.2033,0.2086,0.2065,0.2072,0.2092,0.2102,0.2105,0.2117,0.2135,0.2137,0.2123,0.2152,0.2158,0.219,0.2208,0.2176,0.2178,0.2274,0.2276,0.2278,0.2293,0,0,0,0,0,0,0.2025,0.2032,0.2044,0.2065,0.2073,0.2117,0.2103,0.2107,0.2122,0.2122,0.2143,0.2146,0.2152,0.2186,0.2192,0.221,0.218,0.2272,0.2275,0.2277,0.2291,0.2295,0.2299,0,0,0,0,0,0.2023,0.204,0.2044,0.205,0.2086,0.2118,0.2123,0.2134,0.2123,0.2139,0.215,0.2145,0.2206,0.2189,0.2196,0.2215,0.2271,0.2274,0.2277,0.2289,0.2294,0.2299,0,0,0,0,0,0,0.2016,0.2042,0.2047,0.2071,0.2096,0.2118,0.2132,0.2137,0.2159,0.2154,0.2164,0.2168,0.2205,0.2212,0.2193,0.2253,0.2238,0.2242,0.2245,0.225,0.2254,0.2269,0.2182,0,0,0,0,0,0.202,0.204,0.2065,0.2086,0.2095,0.2114,0.2128,0.2136,0.2155,0.2163,0.2177,0.2196,0.2224,0.2236,0.2261,0.2294,0.2364,0.2312,0.2316,0.2319,0.2337,0.2441,0.2456,0.2288,0.2288,0.2288,0,0,0.2023,0.2041,0.2052,0.2087,0.2101,0.2125,0.212,0.2143,0.2165,0.2165,0.2197,0.2213,0.2238,0.2275,0.2291,0.228,0.2414,0.2323,0.2325,0.2342,0.2445,0.2462,0.2477,0.229,0.229,0.2289,0,0,0.2036,0.2053,0.207,0.2092,0.2119,0.2136,0.2142,0.2167,0.2181,0.2215,0.2222,0.2251,0.2286,0.2311,0.2327,0.2372,0.2434,0.2377,0.2407,0.2507,0.2522,0.2536,0.2693,0.2721,0.2375,0.2375,0.2375,0,0.204,0.2066,0.2082,0.2103,0.2126,0.2139,0.2166,0.2185,0.222,0.2247,0.2226,0.2305,0.2306,0.2374,0.2379,0.2381,0.2473,0.2381,0.2514,0.2528,0.2543,0.27,0.273,0.2376,0.2376,0.2376,0.2376,0,0.2061,0.2086,0.2098,0.2131,0.2158,0.2184,0.2212,0.2241,0.2252,0.2279,0.2344,0.2357,0.2412,0.2407,0.24,0.2499,0.2549,0.2509,0.2501,0.2561,0.2723,0.2754,0.2378,0.2378,0.2377,0.2377,0,0,0.206,0.2106,0.211,0.2141,0.2177,0.2209,0.2245,0.2303,0.2358,0.2372,0.2454,0.2466,0.2486,0.2507,0.2512,0.2574,0.2742,0.2581,0.2586,0.274,0.3032,0.2986,0.3017,0.2731,0.2735,0.2739,0.3123,0,0.2075,0.2125,0.2142,0.22,0.2233,0.2263,0.2311,0.2363,0.2409,0.2492,0.2512,0.2588,0.2523,0.2567,0.2616,0.2715,0.2819,0.2646,0.295,0.2961,0.2912,0.3047,0.2863,0.3181,0.3154,0.3159,0.3163,0,0.2088,0.2127,0.218,0.2261,0.2279,0.2314,0.2417,0.2463,0.2563,0.2604,0.267,0.271,0.281,0.2739,0.2956,0.2857,0.2956,0.302,0.3035,0.3005,0.297,0.3108,0.3239,0.3106,0.3212,0.3208,0.3205,0,0.2093,0.2158,0.2209,0.2231,0.2315,0.2353,0.2404,0.2498,0.2565,0.2696,0.2773,0.2883,0.2975,0.3084,0.3183,0.3108,0.344,0.3356,0.3429,0.3431,0.3339,0.3322,0.337,0.3542,0.3541,0.354,0.3539,0,0.2108,0.215,0.2219,0.2248,0.2337,0.238,0.2485,0.2553,0.2667,0.2763,0.2838,0.2951,0.3064,0.3235,0.33,0.3483,0.3552,0.3492,0.3529,0.3342,0.3322,0.3249,0.3192,0.3554,0.3551,0.3548,0.3546,0,0.2102,0.2141,0.2214,0.2305,0.234,0.2405,0.2522,0.2588,0.2706,0.2843,0.2895,0.3077,0.3284,0.3413,0.3645,0.3657,0.3715,0.386,0.3658,0.366,0.3526,0.3478,0.3549,0.3453,0.4024,0.4025,0.4026,0,0.2099,0.2135,0.225,0.2291,0.233,0.2425,0.2477,0.2595,0.2659,0.2904,0.2962,0.3223,0.3352,0.3698,0.3782,0.3971,0.3804,0.3916,0.3691,0.3543,0.3518,0.3375,0.3276,0.3628,0.3625,0.3623,0.3622,0,0.21,0.2144,0.2204,0.2296,0.2356,0.2429,0.2509,0.2573,0.2709,0.2843,0.3032,0.3173,0.3474,0.3573,0.3809,0.3872,0.3683,0.388,0.3772,0.3264,0.3071,0.2985,0.3399,0.3605,0.3606,0.3608,0.3608,0.3609,0.2094,0.214,0.2216,0.2301,0.2359,0.2403,0.243,0.2513,0.2632,0.2784,0.2989,0.3129,0.3322,0.3599,0.3666,0.3612,0.3612,0.3477,0.3469,0.3366,0.3124,0.3522,0.3703,0.3705,0.3707,0.3709,0.371,0,0.2069,0.2127,0.2207,0.2286,0.2305,0.2356,0.2417,0.2414,0.2495,0.2666,0.2819,0.2979,0.3084,0.3204,0.3279,0.3206,0.3056,0.3109,0.2835,0.2785,0.3196,0.3015,0.2994,0.2994,0.2994,0.2994,0.2994,0.2995,0.2055,0.2112,0.2167,0.2209,0.2239,0.2218,0.2225,0.2245,0.2318,0.2419,0.2485,0.2633,0.2829,0.296,0.2899,0.2837,0.2623,0.2521,0.2551,0.2778,0.2808,0.2836,0.2649,0.2551,0.2551,0.197,0.1966,0.1962]},{"header":{"parameterUnit":"m.s-1","parameterCategory":2,"la1":30.2991,"la2":30.254,"lo1":-89.0895,"lo2":-89.0444,"dy":0.0017,"dx":0.0017,"nx":28,"ny":28,"refTime":"2025-03-18T21:00:00:Z","depth":"0","parameterNumber":3,"parameterNumberName":"V-component_of_CURRENTS"},"data":[0,0,0,0,0,0,0,0,0,0,0,0,0,0,0,0,0,0,0,0,0,0,0,0,0,0,0,0,0,0,0,0,0,0,0,0,0,0,0,0,0,0,0,0,0,0,0,0,0,0,0,0,0,0,0,0,0,0,0.0269,0.0269,0,0.0244,0.0244,0.0244,0.0244,0.0245,0.0245,0.0245,0.0193,0.0191,0.019,0,0,0,0,0,0,0,0,0,0,0,0,0,0.0272,0.0272,0.0269,0.0269,0.0269,0.0244,0.0244,0.0243,0.0244,0.0245,0.0245,0.0245,0.0193,0.0191,0.0189,0,0,0,0,0,0,0,0,0,0,0,0,0,0.0261,0.0272,0.0269,0.0266,0.0266,0.0244,0.0244,0.0243,0.0244,0.0245,0.0245,0.0246,0.0194,0.0192,0.0189,0.0162,0,0,0.0181,0.018,0,0,0,0,0,0,0,0,0.0262,0.0261,0.0267,0.0266,0.0266,0.0248,0.0226,0.0215,0.0244,0.0252,0.0245,0.0246,0.0208,0.0205,0.0199,0.016,0.0158,0.0181,0.0179,0.0178,0.0178,0,0,0,0,0,0,0,0.0263,0.0262,0.0259,0.0267,0.0266,0.025,0.025,0.0224,0.0227,0.0251,0.0251,0.0249,0.0208,0.0202,0.0198,0.0157,0.0181,0.0179,0.0177,0.0176,0.0092,0.0091,0,0,0,0,0,0,0.0268,0.0263,0.026,0.0258,0.0265,0.025,0.0249,0.0253,0.0228,0.0225,0.0248,0.0249,0.0206,0.0201,0.0196,0.0163,0.0178,0.0176,0.0174,0.0093,0.0092,0.0091,0,0,0,0,0,0,0.0268,0.0268,0.0261,0.026,0.0258,0.025,0.0254,0.0252,0.0248,0.0226,0.0222,0.0245,0.0206,0.02,0.0172,0.0161,0.0175,0.0172,0.0093,0.0092,0.0091,0.0098,0,0,0,0,0,0,0.0269,0.0269,0.0273,0.026,0.0258,0.0249,0.0253,0.0251,0.0245,0.0246,0.0222,0.0218,0.0206,0.0176,0.017,0.0158,0.017,0.0094,0.0093,0.0092,0.0098,0.0097,0.0096,0,0,0,0,0,0.0269,0.0274,0.0273,0.0273,0.0265,0.0249,0.0246,0.0242,0.0244,0.024,0.0224,0.0219,0.0164,0.0174,0.0166,0.0153,0.0095,0.0093,0.0092,0.0099,0.0097,0.0096,0,0,0,0,0,0,0.0276,0.0274,0.0273,0.0278,0.0264,0.0249,0.0244,0.0241,0.0225,0.0225,0.0208,0.0202,0.0174,0.016,0.0172,0.0125,0.0128,0.0125,0.0136,0.0135,0.0133,0.0158,0.0168,0,0,0,0,0,0.0279,0.0286,0.0273,0.0276,0.0269,0.0256,0.0249,0.0245,0.0229,0.0224,0.0205,0.0184,0.016,0.0147,0.0123,0.0095,0.0116,0.0082,0.0081,0.008,0.0095,0.0115,0.0118,0.0086,0.0086,0.0086,0,0,0.0282,0.0283,0.0286,0.0279,0.0267,0.0258,0.0253,0.0242,0.0236,0.0218,0.02,0.0177,0.0151,0.0123,0.0109,0.0112,0.0099,0.0078,0.0078,0.0093,0.0114,0.0118,0.0121,0.0085,0.0085,0.0085,0,0,0.0291,0.029,0.0296,0.0286,0.0272,0.026,0.0257,0.0237,0.0229,0.0206,0.0192,0.0167,0.0129,0.0111,0.0097,0.0073,0.0092,0.006,0.0074,0.0093,0.0097,0.01,0.0135,0.0142,0.006,0.006,0.006,0,0.0295,0.0305,0.0292,0.0291,0.0288,0.0262,0.0262,0.0242,0.0217,0.0219,0.0202,0.0166,0.0126,0.0113,0.0092,0.0071,0.0096,0.0083,0.0094,0.0098,0.0102,0.0137,0.0144,0.006,0.006,0.006,0.006,0,0.0306,0.0312,0.031,0.0305,0.0294,0.0289,0.0262,0.0249,0.0234,0.0226,0.0211,0.0166,0.0159,0.0123,0.0091,0.0091,0.0106,0.0092,0.0105,0.0106,0.0142,0.0149,0.006,0.006,0.006,0.006,0,0,0.0327,0.0323,0.0323,0.0333,0.0306,0.0305,0.0283,0.0274,0.03,0.0249,0.0289,0.0198,0.0198,0.0181,0.0145,0.0133,0.0151,0.0118,0.0119,0.0166,0.0217,0.0196,0.0202,0.0147,0.0148,0.0149,0.0235,0,0.0342,0.0358,0.0345,0.0355,0.0361,0.0335,0.0334,0.0322,0.0317,0.0346,0.0296,0.0318,0.0215,0.0235,0.0196,0.018,0.017,0.013,0.0198,0.0201,0.0192,0.0209,0.0153,0.0222,0.0242,0.0243,0.0244,0,0.036,0.0372,0.039,0.0409,0.0411,0.0413,0.0436,0.0436,0.045,0.0458,0.0457,0.0448,0.0422,0.035,0.0309,0.0295,0.0251,0.0222,0.0225,0.0212,0.0193,0.0222,0.0235,0.0075,0.0256,0.0255,0.0254,0,0.0399,0.0407,0.0432,0.0432,0.044,0.0454,0.0463,0.0477,0.0523,0.0561,0.0632,0.0581,0.0626,0.0535,0.0441,0.0395,0.0422,0.0361,0.0302,0.0302,0.0271,0.0265,0.0149,0.034,0.034,0.034,0.034,0,0.043,0.0451,0.0458,0.0475,0.0531,0.0512,0.059,0.0598,0.0664,0.0767,0.0713,0.0811,0.0679,0.0671,0.0529,0.0454,0.0495,0.0322,0.0324,0.0269,0.0263,0.0135,0.0047,0.0343,0.0342,0.0342,0.0341,0,0.0476,0.0473,0.0515,0.0537,0.0554,0.0601,0.0689,0.0758,0.0807,0.0954,0.099,0.1027,0.1016,0.0872,0.0778,0.0619,0.0423,0.0476,0.0426,0.0418,0.0173,0.0087,0.002,-0.0047,0.0424,0.0424,0.0424,0,0.0501,0.0525,0.0579,0.0621,0.0639,0.071,0.0775,0.0829,0.0928,0.1097,0.1194,0.1246,0.1291,0.1139,0.0869,0.0652,0.0476,0.046,0.0328,0.0164,0.0071,0.0014,-0.0042,0.0298,0.0297,0.0296,0.0295,0,0.056,0.0581,0.0623,0.0712,0.0782,0.0882,0.0986,0.1092,0.1195,0.1332,0.152,0.1576,0.1433,0.1205,0.0899,0.0712,0.0321,0.0436,0.0278,-0.0027,-0.0105,-0.0169,0.0249,0.0288,0.0289,0.0289,0.029,0.029,0.0615,0.0666,0.0725,0.0813,0.0906,0.1051,0.1163,0.1298,0.1485,0.1705,0.1745,0.1829,0.1467,0.1038,0.0788,0.0268,0.0292,0.0077,-0.0002,-0.0036,-0.0149,0.0258,0.0282,0.0283,0.0283,0.0284,0.0284,0,0.0674,0.0734,0.0823,0.0942,0.1064,0.1097,0.1302,0.1435,0.1671,0.1829,0.1978,0.1799,0.1354,0.0881,0.0203,-0.0125,-0.0256,-0.0306,-0.0429,-0.0458,-0.0086,-0.0146,-0.0229,-0.0229,-0.0228,-0.0228,-0.0228,-0.0228,0.0711,0.0803,0.0852,0.1054,0.115,0.1339,0.1468,0.1668,0.1808,0.1992,0.1997,0.1994,0.1587,0.0412,-0.0367,-0.0537,-0.0755,-0.081,-0.0872,-0.0675,-0.0646,-0.0619,-0.0699,-0.0896,-0.0897,-0.1236,-0.124,-0.1243]}],[{"header":{"parameterUnit":"m.s-1","parameterCategory":2,"la1":30.2991,"la2":30.254,"lo1":-89.0895,"lo2":-89.0444,"dy":0.0017,"dx":0.0017,"nx":28,"ny":28,"refTime":"2025-03-18T21:00:00:Z","depth":"2","parameterNumber":2,"parameterNumberName":"U-component_of_CURRENTS"},"data":[0,0,0,0,0,0,0,0,0,0,0,0,0,0,0,0,0,0,0,0,0,0,0,0,0,0,0,0,0,0,0,0,0,0,0,0,0,0,0,0,0,0,0,0,0,0,0,0,0,0,0,0,0,0,0,0,0,0,0.1975,0.1976,0,0.2026,0.2026,0.2025,0.2019,0.2019,0.2019,0.2019,0.2044,0.2044,0.2045,0,0,0,0,0,0,0,0,0,0,0,0,0,0.1865,0.1866,0.1975,0.1976,0.1978,0.2026,0.2026,0.2025,0.2019,0.2019,0.2019,0.2019,0.2043,0.2044,0.2045,0,0,0,0,0,0,0,0,0,0,0,0,0,0.1905,0.1867,0.1975,0.1987,0.199,0.2026,0.2026,0.2025,0.2019,0.2019,0.2019,0.2019,0.2043,0.2044,0.2045,0.205,0,0,0.2048,0.2048,0,0,0,0,0,0,0,0,0.1903,0.1908,0.1984,0.1987,0.1989,0.2024,0.1996,0.2036,0.2019,0.1998,0.2019,0.2019,0.2041,0.2042,0.2039,0.2051,0.2052,0.2048,0.2049,0.2049,0.2049,0,0,0,0,0,0,0,0.19,0.1906,0.1986,0.1986,0.1989,0.1989,0.1993,0.2003,0.2011,0.2,0.2002,0.2022,0.2041,0.2038,0.2039,0.2053,0.2048,0.2049,0.2049,0.205,0.2138,0.214,0,0,0,0,0,0,0.1913,0.1903,0.1984,0.1988,0.1956,0.1991,0.1996,0.2005,0.2011,0.2015,0.2022,0.2022,0.2036,0.2038,0.204,0.2096,0.2049,0.205,0.205,0.2137,0.2139,0.2141,0,0,0,0,0,0,0.191,0.1919,0.1982,0.1955,0.1964,0.1994,0.2004,0.2007,0.2017,0.2031,0.2032,0.2033,0.2036,0.2039,0.2069,0.2095,0.205,0.2051,0.2135,0.2137,0.214,0.2177,0,0,0,0,0,0,0.1906,0.1917,0.1923,0.1955,0.1966,0.2018,0.2005,0.2008,0.2034,0.2034,0.204,0.2042,0.2036,0.2068,0.207,0.2096,0.2052,0.2132,0.2136,0.2139,0.2173,0.218,0.2186,0,0,0,0,0,0.1902,0.1907,0.1923,0.1933,0.1975,0.202,0.2024,0.2039,0.2035,0.2046,0.2054,0.2042,0.2091,0.207,0.2072,0.2099,0.2131,0.2135,0.2139,0.217,0.2179,0.2186,0,0,0,0,0,0,0.1862,0.1909,0.1927,0.1946,0.1992,0.2023,0.2033,0.2049,0.2062,0.2059,0.206,0.2063,0.2101,0.2099,0.2076,0.2137,0.2111,0.2116,0.2134,0.2143,0.2149,0.2162,0.2053,0,0,0,0,0,0.1861,0.1884,0.1931,0.1958,0.1971,0.2004,0.2023,0.2042,0.2065,0.207,0.208,0.2095,0.2118,0.2129,0.2145,0.2174,0.2223,0.2196,0.2203,0.2208,0.2223,0.2321,0.2338,0.2154,0.2154,0.2154,0,0,0.186,0.1891,0.1906,0.1953,0.1978,0.2006,0.2012,0.205,0.2083,0.2072,0.2104,0.2118,0.2132,0.2168,0.2185,0.2169,0.2292,0.2213,0.2217,0.223,0.2327,0.2345,0.2361,0.2157,0.2156,0.2156,0,0,0.1868,0.1889,0.1904,0.1934,0.1987,0.2016,0.2033,0.2073,0.2093,0.2134,0.214,0.2172,0.2197,0.2219,0.2231,0.2286,0.2325,0.2295,0.2335,0.243,0.2446,0.2461,0.257,0.2594,0.2296,0.2296,0.2296,0,0.1872,0.1897,0.192,0.1937,0.1977,0.2022,0.2056,0.2081,0.2133,0.217,0.2151,0.2226,0.2223,0.229,0.2303,0.23,0.2373,0.2298,0.244,0.2455,0.247,0.2577,0.2603,0.2298,0.2298,0.2298,0.2297,0,0.1878,0.1907,0.1918,0.1963,0.2001,0.2046,0.2094,0.2138,0.2172,0.2207,0.2284,0.229,0.2343,0.2343,0.2332,0.2437,0.2464,0.2438,0.2418,0.249,0.2599,0.2626,0.2301,0.2301,0.23,0.2299,0,0,0.1885,0.1922,0.1929,0.1974,0.2027,0.2077,0.2128,0.2216,0.2282,0.231,0.24,0.2416,0.2437,0.2454,0.2458,0.252,0.267,0.2525,0.2528,0.2631,0.2917,0.2752,0.2765,0.268,0.2684,0.2688,0.2961,0,0.1903,0.1952,0.1963,0.2045,0.2087,0.2142,0.2199,0.2277,0.2341,0.243,0.2458,0.253,0.2476,0.2517,0.2572,0.2655,0.2739,0.26,0.2834,0.2841,0.2683,0.2789,0.2524,0.2728,0.2987,0.2991,0.2994,0,0.1905,0.1954,0.2019,0.2128,0.215,0.2199,0.2343,0.24,0.2507,0.2553,0.2621,0.2654,0.2752,0.2687,0.2876,0.2801,0.2868,0.2916,0.2927,0.2776,0.2723,0.2694,0.2766,0.3039,0.3035,0.3032,0.3029,0,0.1928,0.2005,0.2078,0.2105,0.2208,0.2267,0.2337,0.2442,0.2515,0.2645,0.2718,0.2821,0.2906,0.2995,0.3068,0.3008,0.3282,0.3211,0.3136,0.3128,0.2945,0.291,0.3362,0.3361,0.3361,0.336,0.3359,0,0.1947,0.201,0.2097,0.2138,0.2255,0.2306,0.2431,0.251,0.262,0.2718,0.2786,0.2891,0.2991,0.3132,0.3169,0.3243,0.3376,0.3177,0.3189,0.2949,0.2913,0.3198,0.3175,0.337,0.3368,0.3366,0.3364,0,0.1945,0.1993,0.21,0.2222,0.2262,0.2349,0.2473,0.2545,0.2662,0.2797,0.2846,0.3013,0.3177,0.327,0.3451,0.3375,0.3457,0.3451,0.3161,0.3127,0.3222,0.3199,0.3404,0.34,0.3397,0.3395,0.3392,0,0.1942,0.1992,0.2152,0.2205,0.2257,0.2371,0.2426,0.255,0.2617,0.2858,0.2916,0.3132,0.3229,0.3425,0.3363,0.3417,0.3489,0.3172,0.2954,0.3237,0.323,0.3211,0.3192,0.2773,0.2766,0.276,0.2756,0,0.1959,0.2023,0.2106,0.2214,0.229,0.2372,0.2464,0.2526,0.2672,0.2793,0.2966,0.3077,0.3219,0.3126,0.3156,0.313,0.3118,0.3048,0.35,0.2747,0.2648,0.2638,0.264,0.2705,0.271,0.2714,0.2716,0.2718,0.1968,0.2034,0.2136,0.2226,0.2296,0.2344,0.238,0.247,0.2581,0.2687,0.2836,0.2864,0.2898,0.276,0.2724,0.2662,0.2836,0.2683,0.2701,0.2724,0.2545,0.244,0.2429,0.2433,0.2436,0.2438,0.244,0,0.1962,0.2031,0.2126,0.222,0.2241,0.2304,0.2369,0.236,0.2434,0.2492,0.2547,0.2299,0.2254,0.2326,0.2139,0.2107,0.2088,0.2034,0.1997,0.2048,0.2094,0.1881,0.1591,0.1589,0.1586,0.1584,0,0,0.196,0.2034,0.2087,0.213,0.2173,0.2165,0.2178,0.2183,0.2183,0.2097,0.2022,0.2077,0.2197,0.1829,0.1801,0.1681,0.1848,0.1612,0.2291,0.2296,0.2339,0.2465,0.2193,0,0,0,0,0]},{"header":{"parameterUnit":"m.s-1","parameterCategory":2,"la1":30.2991,"la2":30.254,"lo1":-89.0895,"lo2":-89.0444,"dy":0.0017,"dx":0.0017,"nx":28,"ny":28,"refTime":"2025-03-18T21:00:00:Z","depth":"2","parameterNumber":3,"parameterNumberName":"V-component_of_CURRENTS"},"data":[0,0,0,0,0,0,0,0,0,0,0,0,0,0,0,0,0,0,0,0,0,0,0,0,0,0,0,0,0,0,0,0,0,0,0,0,0,0,0,0,0,0,0,0,0,0,0,0,0,0,0,0,0,0,0,0,0,0,-0.0005,-0.0005,0,-0.006,-0.0062,-0.0063,-0.0094,-0.0093,-0.0092,-0.0091,-0.015,-0.0152,-0.0154,0,0,0,0,0,0,0,0,0,0,0,0,0,-0.0004,-0.0004,-0.0005,-0.0005,-0.0004,-0.006,-0.0062,-0.0064,-0.0094,-0.0093,-0.0092,-0.0091,-0.0149,-0.0152,-0.0154,0,0,0,0,0,0,0,0,0,0,0,0,0,-0.0036,-0.0004,-0.0005,-0.0018,-0.0019,-0.006,-0.0062,-0.0064,-0.0094,-0.0093,-0.0091,-0.009,-0.0148,-0.0151,-0.0155,-0.0204,0,0,-0.0166,-0.0167,0,0,0,0,0,0,0,0,-0.0034,-0.0038,-0.0017,-0.0017,-0.0018,-0.006,-0.0083,-0.0107,-0.0094,-0.0077,-0.0091,-0.009,-0.0114,-0.012,-0.0149,-0.0206,-0.0209,-0.0166,-0.0168,-0.017,-0.0171,0,0,0,0,0,0,0,-0.0032,-0.0036,-0.0038,-0.0016,-0.0017,-0.0048,-0.0052,-0.0089,-0.011,-0.0078,-0.0078,-0.0068,-0.0116,-0.0145,-0.015,-0.021,-0.0166,-0.0169,-0.0171,-0.0173,-0.0236,-0.0236,0,0,0,0,0,0,-0.0001,-0.0033,-0.0036,-0.0038,-0.0011,-0.0048,-0.0053,-0.0056,-0.011,-0.0114,-0.0069,-0.0069,-0.014,-0.0146,-0.0152,-0.0156,-0.017,-0.0173,-0.0175,-0.0237,-0.0236,-0.0236,0,0,0,0,0,0,-0.0002,-0.0002,-0.0033,-0.0028,-0.0032,-0.0048,-0.0053,-0.0058,-0.0069,-0.0101,-0.0107,-0.007,-0.0139,-0.0147,-0.0168,-0.016,-0.0175,-0.0178,-0.0237,-0.0237,-0.0236,-0.0199,0,0,0,0,0,0,-0.0002,-0.0002,-0.0004,-0.0026,-0.0031,-0.0039,-0.0053,-0.006,-0.006,-0.0061,-0.0104,-0.011,-0.0138,-0.0162,-0.0171,-0.0165,-0.0181,-0.0238,-0.0237,-0.0236,-0.0201,-0.0197,-0.0194,0,0,0,0,0,-0.0002,-0.0004,-0.0005,-0.0004,-0.0031,-0.0037,-0.0044,-0.0058,-0.0061,-0.0065,-0.0092,-0.0107,-0.0162,-0.0165,-0.0176,-0.017,-0.0238,-0.0237,-0.0236,-0.0202,-0.0198,-0.0194,0,0,0,0,0,0,-0.0006,-0.0007,-0.0008,-0.0011,-0.0012,-0.0037,-0.0042,-0.0049,-0.0079,-0.0077,-0.0113,-0.0121,-0.0135,-0.0157,-0.0159,-0.0184,-0.0199,-0.02,-0.0169,-0.0165,-0.0162,-0.0149,-0.0184,0,0,0,0,0,-0.0005,0.0,-0.0008,-0.0002,-0.0006,-0.0023,-0.0029,-0.0033,-0.0053,-0.0065,-0.009,-0.0117,-0.0146,-0.0156,-0.0185,-0.0207,-0.0215,-0.0205,-0.0201,-0.0198,-0.0194,-0.0191,-0.0186,-0.0232,-0.0232,-0.0233,0,0,-0.0,0.0003,0.0005,-0.0001,-0.001,-0.0016,-0.0027,-0.0024,-0.0027,-0.0067,-0.0084,-0.0109,-0.0148,-0.0169,-0.0176,-0.0183,-0.0191,-0.0197,-0.0195,-0.0192,-0.0189,-0.0185,-0.0181,-0.0232,-0.0232,-0.0232,0,0,0.0015,0.0009,0.0014,0.0008,0.0013,0.0002,0.0011,-0.0006,-0.0015,-0.0032,-0.0059,-0.0076,-0.0118,-0.0146,-0.0166,-0.0162,-0.0174,-0.0161,-0.0136,-0.0133,-0.0129,-0.0126,-0.0134,-0.0132,-0.0158,-0.0158,-0.0158,0,0.0026,0.0027,0.0016,0.0014,0.002,0.0015,0.0019,0.0,-0.0016,-0.0013,-0.0023,-0.0068,-0.0111,-0.0129,-0.0136,-0.0155,-0.0152,-0.015,-0.0128,-0.0125,-0.0122,-0.0132,-0.013,-0.0156,-0.0156,-0.0156,-0.0157,0,0.0032,0.0037,0.0041,0.0039,0.0035,0.0047,0.0031,0.0032,0.0029,0.002,0.0016,-0.0036,-0.0051,-0.0074,-0.0115,-0.0112,-0.0116,-0.0124,-0.0137,-0.0115,-0.0127,-0.0125,-0.0153,-0.0154,-0.0155,-0.0155,0,0,0.006,0.005,0.0055,0.0068,0.0055,0.0064,0.0056,0.0063,0.0091,0.0059,0.0091,0.0013,0.0012,-0.0011,-0.0048,-0.0064,-0.0067,-0.0085,-0.0086,-0.0092,-0.0057,-0.0163,-0.0172,-0.006,-0.0059,-0.0059,-0.0075,0,0.0081,0.0093,0.0077,0.0103,0.0108,0.0101,0.0107,0.0109,0.0116,0.0144,0.01,0.0113,0.003,0.0045,0.0008,-0.003,-0.0059,-0.0062,-0.0079,-0.008,-0.0175,-0.0172,-0.0114,-0.0132,-0.0074,-0.0073,-0.0073,0,0.0094,0.0105,0.0124,0.0156,0.016,0.0176,0.0217,0.0225,0.0241,0.025,0.0249,0.0233,0.02,0.0141,0.0067,0.0078,0.0005,-0.0041,-0.0042,-0.0153,-0.0184,-0.0144,-0.0132,-0.0071,-0.0071,-0.0071,-0.0072,0,0.0133,0.0149,0.0178,0.018,0.0198,0.0224,0.0248,0.0267,0.031,0.0342,0.0401,0.0345,0.0372,0.0266,0.0147,0.0124,0.0075,0.0037,-0.0134,-0.0141,-0.0104,-0.0111,-0.0025,-0.0025,-0.0025,-0.0025,-0.0025,0,0.0163,0.0193,0.0208,0.0227,0.0293,0.0281,0.0369,0.0384,0.0441,0.0531,0.0478,0.0545,0.0411,0.0364,0.0209,0.0045,0.0123,-0.0134,-0.0154,-0.0094,-0.0099,-0.0055,-0.0058,-0.0026,-0.0025,-0.0025,-0.0025,0,0.0201,0.0203,0.0257,0.0295,0.0315,0.037,0.0461,0.0527,0.0574,0.0699,0.0727,0.0725,0.0646,0.048,0.0333,0.0152,-0.001,-0.0092,-0.0029,-0.0046,-0.0248,-0.0249,-0.029,-0.0293,-0.0297,-0.03,-0.0302,0,0.0222,0.0249,0.032,0.036,0.0386,0.0465,0.0527,0.059,0.0676,0.0815,0.0888,0.0864,0.0836,0.0558,0.0269,-0.0022,-0.0054,-0.0188,-0.0264,-0.0261,-0.0276,-0.0271,-0.0268,-0.0184,-0.0185,-0.0186,-0.0187,0,0.0278,0.0311,0.035,0.0429,0.0506,0.0602,0.0704,0.0791,0.0898,0.1005,0.1131,0.1122,0.0877,0.0598,0.0182,-0.0015,-0.0151,-0.0226,-0.018,-0.0159,-0.0172,-0.0184,-0.0181,-0.0195,-0.0194,-0.0194,-0.0193,-0.0193,0.0329,0.038,0.0436,0.0496,0.0598,0.0725,0.0829,0.0949,0.1101,0.1256,0.1234,0.1209,0.0931,0.0365,0.0083,-0.0221,-0.0253,-0.0376,-0.0367,-0.0358,-0.0377,-0.0398,-0.0467,-0.0467,-0.0468,-0.0468,-0.0469,0,0.0385,0.0424,0.0493,0.0586,0.0693,0.0762,0.0935,0.103,0.1218,0.1307,0.1356,0.1041,0.0724,0.0418,-0.003,-0.0341,-0.0303,-0.0434,-0.0299,-0.0291,-0.0283,-0.0292,-0.0362,-0.0363,-0.0363,-0.0363,0,0,0.0419,0.0464,0.0478,0.0617,0.0733,0.0915,0.1038,0.1185,0.1264,0.1325,0.1302,0.1153,0.079,0.0468,0.011,-0.0108,-0.0133,-0.0159,-0.022,-0.001,0.0002,-0.0235,-0.0241,0,0,0,0,0]}],[{"header":{"parameterUnit":"m.s-1","parameterCategory":2,"la1":30.2991,"la2":30.254,"lo1":-89.0895,"lo2":-89.0444,"dy":0.0017,"dx":0.0017,"nx":28,"ny":28,"refTime":"2025-03-18T21:00:00:Z","depth":"4","parameterNumber":2,"parameterNumberName":"U-component_of_CURRENTS"},"data":[0,0,0,0,0,0,0,0,0,0,0,0,0,0,0,0,0,0,0,0,0,0,0,0,0,0,0,0,0,0,0,0,0,0,0,0,0,0,0,0,0,0,0,0,0,0,0,0,0,0,0,0,0,0,0,0,0,0,0.0672,0.0672,0,0.0653,0.0653,0.0652,0.0665,0.0665,0.0666,0.0667,0.0691,0.0691,0.0691,0,0,0,0,0,0,0,0,0,0,0,0,0,0.0739,0.0737,0.0672,0.0672,0.0672,0.0653,0.0653,0.0652,0.0665,0.0665,0.0666,0.0667,0.0691,0.0691,0.0691,0,0,0,0,0,0,0,0,0,0,0,0,0,0.0713,0.0737,0.0672,0.0676,0.0677,0.0653,0.0653,0.0652,0.0664,0.0665,0.0666,0.0667,0.0691,0.0691,0.0691,0.0671,0,0,0.0691,0.0691,0,0,0,0,0,0,0,0,0.0714,0.071,0.0676,0.0676,0.0676,0.0663,0.0685,0.0661,0.0664,0.0668,0.0667,0.0668,0.0685,0.0686,0.0678,0.0672,0.0674,0.0691,0.0691,0.0691,0.0691,0,0,0,0,0,0,0,0.0716,0.0711,0.0663,0.0676,0.0676,0.0686,0.0683,0.0681,0.0671,0.0668,0.0669,0.0668,0.0686,0.0678,0.0679,0.0674,0.0691,0.0691,0.0691,0.0691,0.0744,0.0746,0,0,0,0,0,0,0.0718,0.0712,0.0664,0.0663,0.0699,0.0684,0.0681,0.0665,0.0671,0.0672,0.0667,0.0669,0.0678,0.0679,0.068,0.0738,0.0691,0.0691,0.0691,0.0743,0.0745,0.0746,0,0,0,0,0,0,0.0719,0.0713,0.0665,0.0689,0.0684,0.0682,0.0665,0.0665,0.0677,0.067,0.0672,0.0682,0.0678,0.068,0.0706,0.0736,0.0691,0.0691,0.0741,0.0744,0.0746,0.0803,0,0,0,0,0,0,0.0721,0.0713,0.072,0.0689,0.0683,0.0672,0.0664,0.0664,0.0674,0.0677,0.0683,0.0685,0.0679,0.0706,0.0706,0.0735,0.0691,0.074,0.0742,0.0745,0.0799,0.0806,0.0813,0,0,0,0,0,0.0723,0.0729,0.072,0.0716,0.0686,0.0673,0.0672,0.0673,0.0674,0.0687,0.0696,0.0686,0.0723,0.0707,0.0707,0.0737,0.0738,0.0742,0.0745,0.0796,0.0805,0.0812,0,0,0,0,0,0,0.0767,0.073,0.072,0.0716,0.0704,0.0676,0.0698,0.0683,0.0696,0.0716,0.0698,0.0701,0.0733,0.0728,0.071,0.0761,0.0731,0.0734,0.077,0.0779,0.0785,0.0833,0.0691,0,0,0,0,0,0.0776,0.0771,0.0737,0.0739,0.074,0.0719,0.072,0.0719,0.0717,0.0725,0.0717,0.0728,0.074,0.0755,0.0758,0.0785,0.0828,0.0806,0.0813,0.0819,0.0859,0.0955,0.0975,0.0757,0.0756,0.0756,0,0,0.0791,0.0775,0.0771,0.0749,0.0747,0.075,0.0724,0.0741,0.0747,0.0726,0.0746,0.0747,0.075,0.0782,0.0797,0.0786,0.09,0.0823,0.0828,0.0865,0.0961,0.0982,0.1002,0.0759,0.0758,0.0758,0,0,0.0823,0.0811,0.0819,0.0814,0.0816,0.0801,0.0808,0.0789,0.0792,0.0808,0.0796,0.0823,0.0828,0.084,0.0847,0.0896,0.0927,0.0894,0.0977,0.1069,0.1088,0.1106,0.1174,0.1198,0.0906,0.0906,0.0906,0,0.0841,0.0836,0.0824,0.0836,0.0827,0.0825,0.0826,0.0836,0.0826,0.0822,0.0833,0.0875,0.0862,0.0917,0.0937,0.0913,0.0975,0.0941,0.1081,0.11,0.1117,0.1183,0.1208,0.0909,0.0909,0.0909,0.0908,0,0.0874,0.0875,0.0888,0.0888,0.0884,0.0893,0.0888,0.0904,0.0907,0.0895,0.095,0.0972,0.1012,0.0999,0.0987,0.1095,0.11,0.1072,0.1064,0.1143,0.1206,0.1232,0.0914,0.0913,0.0912,0.0911,0,0,0.0875,0.0896,0.0903,0.0894,0.0903,0.0894,0.093,0.0923,0.0967,0.099,0.1066,0.1074,0.1116,0.1133,0.114,0.1215,0.1362,0.1215,0.1218,0.1291,0.1582,0.1352,0.1358,0.1378,0.1383,0.1387,0.1571,0,0.0891,0.0894,0.0913,0.092,0.09,0.092,0.093,0.0941,0.0998,0.1087,0.1136,0.1223,0.1162,0.1244,0.1306,0.1372,0.1437,0.1315,0.1489,0.1494,0.1288,0.1382,0.1403,0.159,0.1596,0.16,0.1603,0,0.091,0.0888,0.0872,0.0875,0.0876,0.091,0.0949,0.0979,0.1095,0.1166,0.1298,0.1361,0.1504,0.1464,0.1627,0.1569,0.1589,0.1616,0.1623,0.1416,0.1312,0.1498,0.165,0.1646,0.1643,0.164,0.1637,0,0.0851,0.0875,0.084,0.0838,0.0838,0.0873,0.092,0.0996,0.106,0.1295,0.1415,0.1563,0.1696,0.1786,0.1774,0.1771,0.1929,0.1926,0.1725,0.1709,0.1836,0.1815,0.2034,0.2034,0.2034,0.2033,0.2033,0,0.0827,0.082,0.083,0.0803,0.0811,0.0846,0.0947,0.1027,0.1219,0.1293,0.149,0.1588,0.179,0.1858,0.1873,0.1847,0.1999,0.1775,0.1754,0.185,0.1829,0.1853,0.183,0.204,0.2038,0.2037,0.2036,0,0.0764,0.0777,0.0725,0.0732,0.0777,0.0787,0.0993,0.1074,0.1261,0.1425,0.1519,0.1692,0.1782,0.1873,0.2001,0.193,0.1952,0.1867,0.1949,0.1924,0.1678,0.1656,0.1813,0.1807,0.1802,0.1797,0.1793,0,0.074,0.0691,0.0655,0.0678,0.0714,0.0808,0.088,0.1086,0.1197,0.1388,0.1441,0.1602,0.1675,0.1723,0.1792,0.1866,0.1784,0.1822,0.1789,0.1699,0.1664,0.1649,0.1635,0.1785,0.1784,0.1782,0.1781,0,0.0647,0.0611,0.0543,0.0565,0.0651,0.0732,0.0885,0.0956,0.113,0.1342,0.1382,0.1443,0.1512,0.1601,0.1629,0.1637,0.1857,0.1768,0.1781,0.1751,0.1666,0.1633,0.1625,0.1762,0.1765,0.1767,0.1768,0,0.0576,0.0488,0.0408,0.0437,0.0538,0.0589,0.0699,0.0826,0.095,0.119,0.1147,0.1286,0.1438,0.1466,0.1456,0.15,0.1528,0.1521,0.1548,0.157,0.1391,0.1241,0.1224,0,0,0,0,0,0.0488,0.037,0.0341,0.0329,0.043,0.0499,0.0648,0.0758,0.0941,0.095,0.1075,0.1114,0.1178,0.1228,0.1238,0.1327,0.15,0.1327,0.1496,0.166,0.1681,0.1486,0,0,0,0,0,0,0.043,0.0335,0.025,0.0244,0.0265,0.0363,0.0441,0.0558,0.0606,0.0801,0.0858,0.1041,0.1132,0.1175,0.1214,0.1237,0.1319,0.1441,0.1438,0.1648,0.1667,0.1684,0.1491,0,0,0,0,0]},{"header":{"parameterUnit":"m.s-1","parameterCategory":2,"la1":30.2991,"la2":30.254,"lo1":-89.0895,"lo2":-89.0444,"dy":0.0017,"dx":0.0017,"nx":28,"ny":28,"refTime":"2025-03-18T21:00:00:Z","depth":"4","parameterNumber":3,"parameterNumberName":"V-component_of_CURRENTS"},"data":[0,0,0,0,0,0,0,0,0,0,0,0,0,0,0,0,0,0,0,0,0,0,0,0,0,0,0,0,0,0,0,0,0,0,0,0,0,0,0,0,0,0,0,0,0,0,0,0,0,0,0,0,0,0,0,0,0,0,-0.0247,-0.0247,0,-0.028,-0.028,-0.028,-0.0319,-0.0319,-0.032,-0.032,-0.0366,-0.0367,-0.0367,0,0,0,0,0,0,0,0,0,0,0,0,0,-0.0203,-0.0203,-0.0247,-0.0248,-0.0248,-0.028,-0.028,-0.0281,-0.0318,-0.0319,-0.032,-0.0321,-0.0366,-0.0367,-0.0368,0,0,0,0,0,0,0,0,0,0,0,0,0,-0.0227,-0.0204,-0.0247,-0.0271,-0.0273,-0.028,-0.028,-0.0281,-0.0318,-0.0319,-0.032,-0.0321,-0.0366,-0.0367,-0.0368,-0.0356,0,0,-0.0371,-0.0371,0,0,0,0,0,0,0,0,-0.0226,-0.0229,-0.0267,-0.0269,-0.0272,-0.0296,-0.0281,-0.0307,-0.0318,-0.0301,-0.032,-0.0321,-0.0343,-0.0346,-0.035,-0.0359,-0.0361,-0.0371,-0.0371,-0.0372,-0.0372,0,0,0,0,0,0,0,-0.0224,-0.0228,-0.026,-0.0267,-0.027,-0.0275,-0.0279,-0.0286,-0.0317,-0.0303,-0.0306,-0.0309,-0.0345,-0.0349,-0.0352,-0.0361,-0.0371,-0.0372,-0.0372,-0.0373,-0.0374,-0.0373,0,0,0,0,0,0,-0.022,-0.0226,-0.0259,-0.0261,-0.0251,-0.0275,-0.028,-0.0287,-0.0317,-0.0322,-0.0308,-0.0311,-0.0347,-0.035,-0.0353,-0.0336,-0.0372,-0.0373,-0.0373,-0.0374,-0.0373,-0.0373,0,0,0,0,0,0,-0.0219,-0.0223,-0.0258,-0.0244,-0.0249,-0.0275,-0.0283,-0.0288,-0.03,-0.0321,-0.0327,-0.0316,-0.0348,-0.0352,-0.0362,-0.0339,-0.0373,-0.0374,-0.0375,-0.0374,-0.0373,-0.0306,0,0,0,0,0,0,-0.0218,-0.0222,-0.0229,-0.0244,-0.0249,-0.0264,-0.0282,-0.0288,-0.03,-0.0304,-0.0329,-0.0334,-0.0349,-0.036,-0.0363,-0.0341,-0.0375,-0.0376,-0.0374,-0.0373,-0.0309,-0.0303,-0.0298,0,0,0,0,0,-0.0216,-0.0219,-0.0229,-0.0233,-0.0257,-0.0263,-0.0267,-0.0288,-0.0299,-0.0302,-0.0318,-0.0334,-0.0355,-0.036,-0.0364,-0.0341,-0.0376,-0.0375,-0.0373,-0.0311,-0.0304,-0.0298,0,0,0,0,0,0,-0.0203,-0.0224,-0.0235,-0.0245,-0.0255,-0.027,-0.0274,-0.0287,-0.0301,-0.0309,-0.0328,-0.0333,-0.033,-0.0349,-0.0355,-0.034,-0.0367,-0.0366,-0.0319,-0.0312,-0.0307,-0.0319,-0.0376,0,0,0,0,0,-0.0202,-0.0212,-0.0228,-0.0236,-0.0239,-0.0256,-0.0263,-0.0278,-0.0291,-0.0299,-0.0311,-0.0325,-0.0325,-0.0331,-0.0338,-0.0332,-0.0383,-0.0321,-0.0315,-0.0311,-0.0324,-0.0393,-0.0396,-0.0368,-0.0368,-0.0368,0,0,-0.02,-0.0212,-0.0218,-0.0234,-0.0242,-0.0237,-0.0262,-0.0273,-0.0263,-0.0301,-0.0291,-0.0306,-0.032,-0.031,-0.031,-0.0324,-0.034,-0.0309,-0.0304,-0.0321,-0.0392,-0.0395,-0.0398,-0.0368,-0.0368,-0.0368,0,0,-0.0189,-0.0208,-0.0208,-0.021,-0.0224,-0.0231,-0.0233,-0.0247,-0.0249,-0.0249,-0.0262,-0.0266,-0.0276,-0.0272,-0.0274,-0.0244,-0.0307,-0.0247,-0.023,-0.0296,-0.0299,-0.0303,-0.035,-0.0359,-0.0246,-0.0245,-0.0245,0,-0.0187,-0.0187,-0.0208,-0.02,-0.0193,-0.0224,-0.0208,-0.0212,-0.0226,-0.0212,-0.0242,-0.0249,-0.0254,-0.0236,-0.0226,-0.0228,-0.0288,-0.0249,-0.029,-0.0295,-0.03,-0.0348,-0.0359,-0.0242,-0.0242,-0.0243,-0.0243,0,-0.017,-0.0168,-0.0164,-0.0162,-0.0157,-0.0153,-0.0153,-0.0147,-0.0158,-0.0159,-0.0156,-0.0184,-0.0197,-0.0184,-0.0198,-0.0217,-0.0254,-0.0274,-0.0308,-0.0299,-0.035,-0.0362,-0.0237,-0.0238,-0.0239,-0.024,0,0,-0.0161,-0.0155,-0.0151,-0.0131,-0.0135,-0.012,-0.0098,-0.0076,-0.0058,-0.0085,-0.0084,-0.0077,-0.012,-0.0127,-0.0151,-0.0199,-0.0264,-0.0259,-0.0264,-0.0308,-0.0422,-0.0338,-0.0343,-0.0313,-0.0315,-0.0317,-0.0436,0,-0.0139,-0.0113,-0.0113,-0.007,-0.005,-0.0049,-0.0011,0.0006,-0.0011,-0.0021,-0.0053,-0.008,-0.0091,-0.0129,-0.0171,-0.0252,-0.0298,-0.023,-0.0424,-0.043,-0.0358,-0.0355,-0.0324,-0.0446,-0.0449,-0.0451,-0.0452,0,-0.0115,-0.0098,-0.006,-0.0002,0.0011,0.0032,0.008,0.0104,0.0092,0.0064,0.0013,-0.0049,-0.0113,-0.0156,-0.0285,-0.0257,-0.0338,-0.0398,-0.0405,-0.0364,-0.0368,-0.0464,-0.0475,-0.0473,-0.0471,-0.047,-0.0468,0,-0.009,-0.0048,-0.0012,0.0002,0.0051,0.0084,0.0114,0.0134,0.0156,0.0073,0.0031,-0.0051,-0.0137,-0.0247,-0.0354,-0.0358,-0.0514,-0.053,-0.0519,-0.0515,-0.0587,-0.0583,-0.0635,-0.0635,-0.0635,-0.0635,-0.0634,0,-0.0063,-0.0029,0.0003,0.0021,0.0112,0.0121,0.0182,0.0195,0.0165,0.0189,0.0056,0.0012,-0.0181,-0.0281,-0.0374,-0.0468,-0.053,-0.0521,-0.0542,-0.0551,-0.0541,-0.0595,-0.0589,-0.0639,-0.0638,-0.0637,-0.0636,0,-0.0047,-0.0033,0.0029,0.0087,0.012,0.0183,0.0239,0.0281,0.0216,0.0209,0.0161,0.0015,-0.0115,-0.0257,-0.0444,-0.0485,-0.0588,-0.0604,-0.059,-0.0608,-0.0547,-0.0536,-0.0629,-0.0627,-0.0625,-0.0624,-0.0622,0,-0.0037,-0.0017,0.0079,0.015,0.0176,0.0253,0.033,0.0316,0.0341,0.0248,0.0255,0.008,-0.0009,-0.0211,-0.036,-0.0535,-0.0542,-0.0614,-0.059,-0.0536,-0.0548,-0.0539,-0.0531,-0.062,-0.0619,-0.0619,-0.0619,0,-0.0017,0.0011,0.0076,0.0217,0.0312,0.0406,0.048,0.0463,0.0449,0.0399,0.0312,0.0163,0.0025,-0.016,-0.0306,-0.0417,-0.0582,-0.0597,-0.0602,-0.058,-0.0527,-0.0538,-0.0532,-0.0613,-0.0614,-0.0614,-0.0615,0,0.0018,0.0082,0.0173,0.0307,0.0432,0.0505,0.0525,0.0547,0.0546,0.0426,0.0417,0.022,0.01,-0.0094,-0.0204,-0.0329,-0.036,-0.0406,-0.0421,-0.0429,-0.0319,-0.0219,-0.0232,0,0,0,0,0,0.0043,0.0122,0.0257,0.0389,0.0501,0.0563,0.063,0.0624,0.0575,0.0547,0.0467,0.0353,0.0122,0.001,-0.0099,-0.0171,-0.0383,-0.0302,-0.0443,-0.0581,-0.0588,-0.0483,0,0,0,0,0,0,0.0081,0.0184,0.0265,0.0421,0.0501,0.062,0.0645,0.0616,0.059,0.0516,0.0402,0.0345,0.0131,0.0184,-0.01,-0.0139,-0.0238,-0.0404,-0.0406,-0.0578,-0.0584,-0.0589,-0.0483,0,0,0,0,0]}]]